Regional Weather Roundup
Issued by NWS

Home | Current Version | Previous Version | Text Only | Print | Product List | Glossary On
Versions: 1 2 3 4 5 6 7 8 9 10 11 12 13 14 15 16 17 18 19 20 21 22 23 24 25 26 27 28 29 30 31 32 33 34 35 36 37 38 39 40 41 42 43 44 45 46 47 48 49 50
000
ASUS44 KLUB 211210
RWRTX
WEST TEXAS WEATHER ROUNDUP
NATIONAL WEATHER SERVICE LUBBOCK TX
700 AM CDT TUE OCT 21 2014

NOTE: "FAIR" INDICATES FEW OR NO CLOUDS BELOW 12,000 FEET WITH NO
SIGNIFICANT WEATHER AND/OR OBSTRUCTIONS TO VISIBILITY.

TXZ004-006>008-010-012-014-016-OKZ002-211300-
TEXAS PANHANDLE/OKLAHOMA PANHANDLE

CITY           SKY/WX    TMP DP  RH WIND       PRES   REMARKS
AMARILLO       PTCLDY    53  50  89 S8        30.12S
BORGER         CLEAR     55  50  83 SW3       30.10R
CANADIAN       CLEAR     55  54  95 CALM      30.07S
DALHART        CLEAR     46  44  93 W5        30.13R
DUMAS          CLEAR     52  47  84 SW8       30.11R
GUYMON         CLEAR     48  47  96 SW3       30.07S FOG
HEREFORD       CLOUDY    53  51  96 SW3       30.14R
PAMPA          CLEAR     53  50  90 SW7       30.11S
PERRYTON       CLEAR     53  51  94 S6        30.07S
$$

TXZ026-029-035-045-048-211300-
SOUTHERN PANHANDLE/SOUTH PLAINS/ROLLING PLAINS

CITY           SKY/WX    TMP DP  RH WIND       PRES   REMARKS
CHILDRESS      CLEAR     58  53  84 W6        30.09R
SEMINOLE       PTCLDY    53  50  89 CALM      30.12S
LUBBOCK        PTCLDY    50  47  89 NW3       30.12R
PLAINVIEW      CLOUDY    52  51  95 CALM      30.11S
SNYDER         CLEAR     57  53  86 S7        30.11R
$$

TXZ052-054-060>062-072-078-127-140-154-169-211300-
PERMIAN BASIN/CONCHO VALLEY/BIG COUNTRY/EDWARDS PLATEAU

CITY           SKY/WX    TMP DP  RH WIND       PRES   REMARKS
ABILENE        CLEAR     61  54  77 CALM      30.09R
BIG SPRING     MOCLDY    61  55  81 CALM      30.12S
BRADY          CLEAR     55  55 100 CALM      30.08R
BROWNWOOD      PTCLDY    54  52  94 CALM      30.09R
JUNCTION       CLEAR     52  50  93 NW3       30.07S
MIDLAND        PTCLDY    59  52  77 SE3       30.09S
ODESSA         PTCLDY    58  52  80 SE6       30.10R
SAN ANGELO     PTCLDY    54  50  86 CALM      30.08R
SONORA         PTCLDY    61  55  82 CALM      30.11S
SWEETWATER     CLEAR     59  55  84 S7        30.12S
WINK           CLOUDY    60  59  96 E6        30.06S
$$

TXZ055-058-074-075-080-082-211300-
FAR WEST/SOUTHWEST MOUNTAINS/TRANS PECOS

CITY           SKY/WX    TMP DP  RH WIND       PRES   REMARKS
ALPINE         CLOUDY    55  54  95 S3        30.19R
DRYDEN           N/A     65  61  87 E10       30.03S
EL PASO        PTCLDY    58  54  86 N6        30.07R
FORT STOCKTON  LGT RAIN  62  59  90 E7        30.08R
GUADALUPE PASS FOG       54  54 100 NE20      30.15R VSB 1/4
MARFA          CLOUDY    54  54 100 NE10      30.13F
PECOS          CLOUDY    61  59  94 E5        30.06S
PRESIDIO       CLOUDY    64  61  89 MISG      30.03R
$$

TXZ014-016-019-021>030-083-211300
TEXAS TECH WEST TEXAS MESONET/TEXAS PANHANDLE/NORTHERN SOUTH PLAINS

CITY           SKY/WX    TMP DP  RH WIND       PRES   REMARKS
ABERNATHY 5ENE   N/A     51  49  94 NW2       30.13S
AMARILLO 9NNE    N/A     49  47  93 S5        30.11S
AMARILLO 7SSE    N/A     48  48  99 SW1       30.13S
AMHERST 1NE      N/A     49  48  96 NW2       30.14R
BOOTLEG 11WNW    N/A     51  48  90 W6        30.16S
CANADIAN 6E      N/A     55  53  92 NW1       30.07R
CAPROCK CYN SP   N/A     64  52  65 SW10      30.10S
CHILDRESS 2NNE   N/A     60  54  80 W5        30.08R
CLARENDON 2WSW   N/A     56  52  87 CALM      30.11R
CLAUDE 12SW      N/A     58  51  78 SW3       30.12S
DIMMITT 2NE      N/A     53  50  90 SW3       30.14R
FLOYDADA 2NNE    N/A     47  46  96 W5        30.12S
FRIONA 2NE       N/A     50  48  95 W2        30.15S
GOODLETT 3W      N/A     57  53  85 SW3       30.07R
HART 3N          N/A     51  49  94 SW2       30.14R
HEREFORD 2NW     N/A     51  48  90 SW2       30.13S
MCLEAN 1E        N/A     57  52  83 W5        30.09R
MEMPHIS 1NE      N/A     54  51  89 NW2       30.08S
MULESHOE 2SSW    N/A     48  47  97 W3        30.14S
OLTON 6S         N/A     51  49  93 W3        30.13S
PALO DURO SP     N/A     55  51  85 CALM      30.14R
PAMPA 2E         N/A     56  51  85 SW6       30.10S
PLAINVIEW 1S     N/A     52  51  95 CALM      30.12S
SILVERTON 7ESE   N/A     54  51  89 W7        30.12R
TULIA 2ENE       N/A     55  51  87 SW6       30.13R
TURKEY 2WSW      N/A     59  53  80 SW7       30.09R
UMBARGER 3NNE    N/A     51  49  93 SW6       30.14R
$$

TXZ033>036-039>041-045>048-211300
TEXAS TECH WEST TEXAS MESONET/SOUTH PLAINS

CITY           SKY/WX    TMP DP  RH WIND       PRES   REMARKS
AIKEN 3WSW       N/A     52  51  95 W3        30.14R
ANTON 6SSW       N/A     50  48  94 NW3       30.13R
BROWNFIELD 2S    N/A     49  47  90 NW1       30.12R
DENVR CTY 7WNW   N/A     49  48  93 N1        30.12S
GAIL 2ESE        N/A     53  49  89 CALM      30.10R
LAMESA 2SE       N/A     51  49  92 SE2       30.12R
LEVELLAND 4S     N/A     47  45  93 NW3       30.13S
LUBBOCK 3WNW     N/A     50  47  90 CALM      30.13R
MORTON 1ENE      N/A     46  45  97 NW3       30.13S
ODONNELL 1N      N/A     54  49  84 S2        30.12R
PLAINS 3N        N/A     49  46  90 CALM      30.13S
RALLS 1SE        N/A     55  51  87 SW3       30.12S
REESE CENTER     N/A     49  47  92 NW1       30.12S
SEMINOLE 2NNE    N/A     51  47  88 N1        30.11S
SLATON 2NE       N/A     52  48  85 SW2       30.12R
SNYDER 3E        N/A     56  53  89 S7        30.10S
SUNDOWN 8SW      N/A     49  47  91 SW3       30.12S
TAHOKA 3NNE      N/A     48  46  93 SW1       30.12R
WOLFFORTH 6SSW   N/A     48  47  97 NW5       30.13R
$$

TXZ031-032-036>038-042>044-211300-
TEXAS TECH WEST TEXAS MESONET/ROLLING PLAINS

CITY           SKY/WX    TMP DP  RH WIND       PRES   REMARKS
ASPERMONT 3NE    N/A     52  50  94 CALM      30.08S
FLUVANNA 3WNW    N/A     54  50  86 SE5       30.10S
GRAHAM 5SSW      N/A     60  51  71 S2        30.11R
GUTHRIE 10WSW    N/A     58  53  83 W3        30.08R
HASKELL 1NW      N/A     58  52  81 S2        30.08R
JAYTON 1SSE      N/A     54  52  93 W3        30.08S
KNOX CITY 3NW    N/A     56  52  86 SE2       30.08R
LK A HENRY 1NW   N/A     55  52  90 SW1       30.09S
NORTHFIELD 1S    N/A     56  54  94 SW3       30.08S
ODELL 4ENE       N/A     59  55  88 S3        30.07R
PADUCAH 10SW     N/A     61  53  75 SW8       30.07S
POST 1NE         N/A     56  51  83 W1        30.10S
RRING SPRGS 3N   N/A     56  52  87 W8        30.10R
SEYMOUR 3NW      N/A     58  54  85 S2        30.07R
SPUR 1W          N/A     51  49  91 NW5       30.09R
WEINERT 2NNE     N/A     56  53  89 S3        30.08S
WHITE RVR 6NE    N/A     60  51  71 SW3       30.10S
$$

TXZ052-054-060>062-072-078-127-140-154-169-211300-
TEXAS TECH WEST TEXAS MESONET/PERMIAN BASIN/
CONCHO VALLEY/BIG COUNTRY/EDWARDS PLATEAU

CITY           SKY/WX    TMP DP  RH WIND       PRES   REMARKS
COYANOSA 2N      N/A     61  61  97 E13       30.07F
JUNCTION 1SSW    N/A     49  48  96 CALM      30.08S
MERTZON 3NNE     N/A     53  49  87 CALM      30.10R
SAN ANGELO 7NW   N/A     55  50  84 CALM      30.09R
STRLNG CT 4WSW   N/A     51  48  87 E2        30.11R
ST LAWRNCE 5SW   N/A     55  51  87 E5        30.10R
SWEETWATR 11SW   N/A     56  53  91 S3        30.12R
WALL 1E          N/A     53  48  84 N5        30.09R
$$

TXZ055-058-074-075-080-082-211300-
TEXAS TECH WEST TEXAS MESONET/FAR WEST/SOUTHWEST MOUNTAINS/TRANS PECOS

CITY           SKY/WX    TMP DP  RH WIND       PRES   REMARKS
PRSMN GAP BBNP   N/A     65  60  85 N13       30.04R
GUADLPE MTN NP   N/A     53  52  96 N3        30.16S
$$



USA.gov is the U.S. government's official web portal to all federal, state and local government web resources and services.